Change the Weather History Date:

Monday, October 8, 2012

  Actual Average (KEDW) Record (KEDW)
Temperature  
Mean Temperature 68 °F -  
Max Temperature 84 °F 82 °F 98 °F (1996)
Min Temperature 53 °F 47 °F 37 °F (2007)
Cooling Degree Days 4    
Growing Degree Days 18 (Base 50)    
Moisture  
Dew Point 39 °F    
Average Humidity 38    
Maximum Humidity 64    
Minimum Humidity 9    
Precipitation  
Precipitation 0.00 in - - ()
Sea Level Pressure  
Sea Level Pressure 29.90 in    
Wind  
Wind Speed 8 mph (SW)    
Max Wind Speed 18 mph    
Max Gust Speed 23 mph    
Visibility 10 miles    
Events      
Averages and records for this station are not official NWS values.
T = Trace of Precipitation, MM = Missing Value Source: NWS Daily Summary

Daily Weather History Graph

Daily Weather History Graph

Search for Another Location

Airport or City:

Trip Planner

Search our weather history database for the weather conditions in past years. The results will help you decide how hot, cold, wet, or windy it might be!

Date:

Astronomy

Oct. 08, 2012 Rise Set
Actual Time 6:52 AM PDT 6:24 PM PDT
Civil Twilight 6:26 AM PDT 6:50 PM PDT
Nautical Twilight 5:57 AM PDT 7:19 PM PDT
Astronomical Twilight 5:28 AM PDT 7:48 PM PDT
Moon No Moon Rise 2:03 PM PDT (10/8)
Length of Visible Light 12h 23m
Length of Day
11h 32m
Last Quarter, 45% of the Moon is Illuminated
Oct 8
Last Quarter
Oct 15
New
Oct 21
First Quarter
Oct 29
Full
Nov 6
Last Quarter

Hourly Weather History & Observations

Time (PDT) Temp. Dew Point Humidity Pressure Visibility Wind Dir Wind Speed Gust Speed Precip Events Conditions
12:55 AM 61.0 °F 44.1 °F 54% 29.90 in 10.0 mi Calm Calm - N/A   Clear
1:55 AM 61.0 °F 45.0 °F 56% 29.90 in 10.0 mi Calm Calm - N/A   Clear
2:55 AM 62.1 °F 45.0 °F 53% 29.89 in 10.0 mi SSW 10.4 mph - N/A   Clear
3:55 AM 59.0 °F 46.0 °F 62% 29.90 in 10.0 mi SSW 9.2 mph - N/A   Clear
4:55 AM 60.1 °F 42.1 °F 51% 29.89 in 10.0 mi SW 11.5 mph - N/A   Clear
5:55 AM 61.0 °F 43.0 °F 52% 29.90 in 10.0 mi SW 9.2 mph - N/A   Clear
6:55 AM 53.1 °F 41.0 °F 64% 29.94 in 10.0 mi NNE 4.6 mph - N/A   Clear
7:55 AM 59.0 °F 42.1 °F 53% 29.94 in 10.0 mi SSE 4.6 mph - N/A   Clear
8:55 AM 68.0 °F 45.0 °F 43% 29.94 in 10.0 mi WSW 9.2 mph - N/A   Clear
9:55 AM 72.0 °F 42.1 °F 34% 29.93 in 10.0 mi SW 6.9 mph - N/A   Clear
10:55 AM 75.9 °F 37.0 °F 24% 29.91 in 10.0 mi SW 12.7 mph - N/A   Clear
11:55 AM 80.1 °F 39.0 °F 23% 29.90 in 10.0 mi WSW 12.7 mph - N/A   Clear
12:55 PM 82.9 °F 33.1 °F 17% 29.88 in 10.0 mi SSW 15.0 mph - N/A   Clear
1:55 PM 84.0 °F 33.1 °F 16% 29.86 in 10.0 mi SW 13.8 mph 21.9 mph N/A   Clear
2:55 PM 84.9 °F 30.9 °F 14% 29.84 in 10.0 mi SSW 18.4 mph 23.0 mph N/A   Clear
3:55 PM 84.0 °F 18.0 °F 9% 29.84 in 10.0 mi WSW 11.5 mph 17.3 mph N/A   Clear
4:55 PM 81.0 °F 26.1 °F 13% 29.86 in 10.0 mi West 16.1 mph - N/A   Clear
5:55 PM 75.9 °F 33.1 °F 21% 29.87 in 10.0 mi West 11.5 mph 20.7 mph N/A   Clear
6:55 PM 70.0 °F 41.0 °F 35% 29.91 in 10.0 mi WSW 9.2 mph - N/A   Clear
7:55 PM 66.9 °F 42.1 °F 40% 29.92 in 10.0 mi WSW 10.4 mph - N/A   Clear
8:55 PM 64.9 °F 41.0 °F 42% 29.93 in 10.0 mi SW 9.2 mph - N/A   Clear
9:55 PM 64.0 °F 43.0 °F 46% 29.94 in 10.0 mi WSW 12.7 mph - N/A   Clear
11:55 PM 62.1 °F 44.1 °F 52% 29.92 in 10.0 mi SW 11.5 mph - N/A   Clear